Location: Madrid
(40.4167°N, 3.7036°W)
Time: 10:34:29
(UTC+00:00)

ISS - Pass Details

Date: 02 October 2024
Orbit: 412 x 424 km, 51.6° (Epoch: 09 October)

Event Time Altitude Azimuth Distance (km) Brightness Sun altitude
Rises 18:43:48 0° 300° (WNW) 2,361 1.3 -10.2°
Reaches altitude 10° 18:46:00 10° 291° (WNW) 1,497 0.4 -10.6°
Maximum altitude 18:49:05 35° 224° (SW) 701 -2.2 -11.2°
Drops below altitude 10° 18:52:10 10° 157° (SSE) 1,494 -1.2 -11.8°
Enters shadow 18:53:08 - 152° (SSE) 1,867 -0.8 -11.9°
